McAlester, OK

12:32 AM CDT on May 27, 2018 (GMT -0500)
McAlester Regional

Weather History for KMLC - April, 2013

Change the Weather History Date:

Saturday, April 6, 2013

  Actual Average Record
Temperature  
Mean Temperature 66 °F -  
Max Temperature 75 °F 71 °F 92 °F (1960)
Min Temperature 57 °F 46 °F 31 °F (1966)
Cooling Degree Days 1    
Growing Degree Days 16 (Base 50)    
Moisture  
Dew Point 47 °F    
Average Humidity 52    
Maximum Humidity 70    
Minimum Humidity 30    
Precipitation  
Precipitation 0.00 in - - ()
Sea Level Pressure  
Sea Level Pressure 29.89 in    
Wind  
Wind Speed 10 mph (South)    
Max Wind Speed 22 mph    
Max Gust Speed 33 mph    
Visibility 10 miles    
Events      
Averages and records for this station are not official NWS values.
T = Trace of Precipitation, MM = Missing Value Source: NWS Daily Summary

Daily Weather History Graph

Daily Weather History Graph

Search for Another Location

Airport or City:

Astronomy

Apr. 06, 2013 Rise Set
Actual Time 7:02 AM CDT 7:48 PM CDT
Civil Twilight 6:37 AM CDT 8:14 PM CDT
Nautical Twilight 6:06 AM CDT 8:44 PM CDT
Astronomical Twilight 5:35 AM CDT 9:15 PM CDT
Moon 4:38 AM CDT (4/6) 4:25 PM CDT (4/6)
Length of Visible Light 13h 37m
Length of Day
12h 45m
Waning Crescent, 15% of the Moon is Illuminated
Apr 6
Waning Crescent
Apr 10
New
Apr 18
First Quarter
Apr 25
Full
May 2
Last Quarter

Hourly Weather History & Observations

Time (CDT) Temp. Dew Point Humidity Pressure Visibility Wind Dir Wind Speed Gust Speed Precip Events Conditions
12:53 AM 57.9 °F 44.1 °F 60% 29.98 in 10.0 mi South 6.9 mph - N/A   Clear
1:53 AM 57.9 °F 44.1 °F 60% 29.97 in 10.0 mi South 8.1 mph - N/A   Partly Cloudy
2:53 AM 59.0 °F 44.1 °F 58% 29.94 in 10.0 mi South 8.1 mph 16.1 mph N/A   Clear
3:53 AM 59.0 °F 44.1 °F 58% 29.93 in 10.0 mi South 9.2 mph 16.1 mph N/A   Clear
4:53 AM 59.0 °F 45.0 °F 60% 29.91 in 10.0 mi South 12.7 mph 18.4 mph N/A   Clear
5:53 AM 57.9 °F 45.0 °F 62% 29.92 in 10.0 mi South 9.2 mph 19.6 mph N/A   Clear
6:53 AM 57.9 °F 46.0 °F 65% 29.91 in 10.0 mi South 10.4 mph 19.6 mph N/A   Partly Cloudy
7:53 AM 59.0 °F 46.0 °F 62% 29.93 in 10.0 mi SSW 11.5 mph 18.4 mph N/A   Clear
8:53 AM 60.1 °F 46.9 °F 62% 29.92 in 10.0 mi South 10.4 mph 23.0 mph N/A   Clear
9:53 AM 64.0 °F 48.0 °F 56% 29.93 in 10.0 mi South 11.5 mph 21.9 mph N/A   Partly Cloudy
10:53 AM 68.0 °F 45.0 °F 43% 29.92 in 10.0 mi South 12.7 mph 28.8 mph N/A   Partly Cloudy
11:53 AM 70.0 °F 41.0 °F 35% 29.91 in 10.0 mi SSW 18.4 mph 31.1 mph N/A   Partly Cloudy
12:53 PM 73.0 °F 39.9 °F 30% 29.87 in 10.0 mi SSW 19.6 mph 33.4 mph N/A   Clear
1:53 PM 73.9 °F 44.1 °F 34% 29.86 in 10.0 mi SSW 17.3 mph 33.4 mph N/A   Partly Cloudy
2:53 PM 75.0 °F 46.0 °F 36% 29.84 in 10.0 mi SSW 21.9 mph 28.8 mph N/A   Partly Cloudy
3:53 PM 75.0 °F 46.9 °F 37% 29.83 in 10.0 mi SSW 16.1 mph 31.1 mph N/A   Mostly Cloudy
4:53 PM 75.0 °F 46.9 °F 37% 29.82 in 10.0 mi SSW 15.0 mph - N/A   Clear
5:53 PM 73.0 °F 48.0 °F 41% 29.83 in 10.0 mi South 11.5 mph 24.2 mph N/A   Scattered Clouds
6:53 PM 72.0 °F 48.9 °F 44% 29.84 in 10.0 mi South 5.8 mph - N/A   Scattered Clouds
7:53 PM 69.1 °F 50.0 °F 51% 29.85 in 10.0 mi South 5.8 mph - N/A   Scattered Clouds
8:53 PM 66.9 °F 51.1 °F 57% 29.86 in 10.0 mi South 5.8 mph - N/A   Partly Cloudy
9:53 PM 64.9 °F 52.0 °F 63% 29.87 in 10.0 mi South 4.6 mph - N/A   Clear
10:53 PM 64.9 °F 53.1 °F 65% 29.87 in 10.0 mi South 4.6 mph - N/A   Mostly Cloudy
11:53 PM 63.0 °F 53.1 °F 70% 29.88 in 10.0 mi South 4.6 mph - N/A   Clear